Regional & State Weather Roundups


226 
ASCA44 KEWX 192020
RWRMX 
LATIN AMERICA AND CARIBBEAN REGIONAL WEATHER ROUNDUP
NATIONAL WEATHER SERVICE AUSTIN/SAN ANTONIO TX
300 PM CDT FRI APR 19 2019
NOTE: "FAIR" INDICATED FEW OR NO CLOUDS BELOW 12,000 FEET WITH NO
SIGNIFICANT WEATHER AND/OR OBSTRUCTIONS TO VISIBILITY.
BAJA CALIFORNIA
  
CITY           SKY/WX    TMP DP  RH WIND       PRES   REMARKS
LORETO         MOSUNNY   86  64  48 NE12      29.83F                  
LA PAZ         MOSUNNY   88  28  11 N14       29.88S                  
MEXICALI       MOSUNNY   93  25   8 S5        29.85F                  
S.J. DEL CABO  MOSUNNY   90  41  18 SE12      29.86F                  
TIJUANA        MOSUNNY   68  55  64 W12       29.95F                  
NORTHWESTERN MEXICO
  
CITY           SKY/WX    TMP DP  RH WIND       PRES   REMARKS
CULIACAN       SUNNY     90  61  37 SW14      29.81S                  
DURANGO        SUNNY     73  12   9 NE18      30.27F                  
GUAYMAS        PTSUNNY   90  52  27 W15       29.79F                  
HERMOSILLO     PTSUNNY  102  27   7 W6        29.85F HX  95           
CD. JUAREZ     MOSUNNY   77  30  18 VRB3      30.18F                  
LOS MOCHIS     MOSUNNY   84  61  45 SW17      29.84S                  
OBREGON        PTSUNNY   99  37  12 W8        29.80S HX  93           
NORTHEASTERN MEXICO
  
CITY           SKY/WX    TMP DP  RH WIND       PRES   REMARKS
CHIHUAHUA      PTSUNNY   82  30  15 SE9       30.20F                  
MATAMOROS      MOSUNNY   84  45  24 E9        30.07F                  
MONCLOVA         N/A    N/A N/A N/A MISG        N/A                   
MONTERREY      MOSUNNY   88  34  14 CALM      30.05F                  
NUEVO LAREDO   SUNNY     82  39  21 CALM      30.10F                  
PIEDRAS NEGRAS SUNNY     82  37  20 NW10      30.15F                  
REYNOSA        MOSUNNY   84  36  17 CALM      30.08F                  
SALTILLO       PTSUNNY   79  50  36 N12       30.28R                  
TORREON        PTSUNNY   84  21  10 NE13      30.17F                  
CD. VICTORIA   MOSUNNY   95  34  11 NW6       30.03F HX  90           
WESTERN MEXICO
  
CITY           SKY/WX    TMP DP  RH WIND       PRES   REMARKS
AGUASCALIENTES PTSUNNY   77  25  14 NE20      30.27F                  
COLIMA         MOSUNNY   82  64  54 SW12      29.96F                  
DEL BAJIO      PTSUNNY   81  36  19 W8        30.27F                  
GUADALAJARA    PTSUNNY   82  28  14 N7        30.15F                  
MANZANILLO     MOSUNNY   77  70  78 SE12      29.89S                  
MAZATLAN       MOSUNNY   84  64  51 W8        29.84F                  
P. VALLARTA    MOSUNNY   81  68  65 SW12      29.84F                  
URUAPAN        SUNNY     79  36  21 S12       30.13F                  
ZACATECAS      MOSUNNY   70  28  21 NE12      30.28F                  
CENTRAL MEXICO
  
CITY           SKY/WX    TMP DP  RH WIND       PRES   REMARKS
CUERNAVACA     MOSUNNY   90  48  24 W2        30.06F                  
MEXICO CITY    MOSUNNY   73  39  29 E6        30.31F                  
MORELIA        SUNNY     79  43  27 NW7       30.20F                  
POZA RICA      SUNNY     90  57  33 SE7       30.08F                  
PUEBLA         MOSUNNY   75  39  27 S7        30.31F                  
QUERETARO      MOSUNNY   75  37  25 E5G18     30.30F                  
S. LUIS POTOSI MOSUNNY   72  41  33 E5G21     30.28F                  
TAMPICO        SUNNY     86  52  30 MISG      30.06F                  
TOLUCA         PTSUNNY   70  37  30 S9        30.35F HAZE             
SOUTHERN MEXICO
  
CITY           SKY/WX    TMP DP  RH WIND       PRES   REMARKS
ACAPULCO       SUNNY     82  70  65 W14       29.86F                  
B. DE HUATULCO MOSUNNY   90  68  48 CALM      29.85F HX  93           
OAXACA         MOSUNNY   79  32  18 N3        30.19F                  
P. ESCONDIDO   MOSUNNY   84  73  70 SW10      29.95  HX  91           
VERACRUZ       MOSUNNY   88  52  29 NE17      30.07F                  
ZIHUATANEJO    SUNNY     86  68  54 SW10      29.89F                  
YUCATAN PENINSULA
  
CITY           SKY/WX    TMP DP  RH WIND       PRES   REMARKS
CAMPECHE       MOSUNNY   81  66  61 N17G35    29.97F                  
CANCUN         HVY RAIN  75  75 100 SW14G25   29.87F                  
CHETUMAL       PTSUNNY   90  77  66 CALM      29.84F HX 102           
CD. DEL CARMEN PTSUNNY   82  68  61 N22       30.02F                  
COZUMEL        PTSUNNY   88  73  62 S10       29.84F HX  96           
MERIDA         PTSUNNY   84  63  48 NW23      29.97F                  
MINATITLAN     SUNNY     81  61  50 N17       30.02F                  
TAPACHULA      MOSUNNY   90  75  62 W7        29.76F HX 100           
TUX. GUTIERREZ MOSUNNY   86  59  39 NW30G41   29.96F                  
VILLAHERMOSA   PTSUNNY   82  64  54 NW14      30.07F                  
CENTRAL AMERICA
  
CITY           SKY/WX    TMP DP  RH WIND       PRES   REMARKS
BELIZE CITY    PTSUNNY   88  77  70 E7        29.82F HX 100           
MANAGUA        PTCLDY    93  68  43 E12       29.74F HX  97           
CARIBBEAN
  
CITY           SKY/WX    TMP DP  RH WIND       PRES   REMARKS
ARUBA          MOSUNNY   86  72  62 E26       29.86S HX  92           
CURACAO        MOSUNNY   84  72  65 E15       29.89S                  
KINGSTON       MOSUNNY   84  70  61 SE15      29.89F                  
NASSAU         MOSUNNY   81  72  74 S21       29.94S                  
SAN JUAN       MOSUNNY   86  66  51 E22G29    29.98S                  
SANTO DOMINGO  MOSUNNY   86  68  54 SE9       29.92F                  
ST. CROIX      MOSUNNY   84  68  58 E16G25    29.99F                  
ST. MAARTEN    MOSUNNY   82  68  61 E16       30.00S                  
ST. THOMAS     SUNNY     84  64  51 E17G23    29.99F                  
$$